"Pseudo-MPEC" for ZTF00O9

Created 2018 Jun 18 9:19:03 UT using Find_Orb

Click here for an explanation of pseudo-MPECs

 
 Astrometry: 
     ZTF00O9 tC2018 06 09MnAstrometry:vN8fWk-CpHV1SQ6;lxHl4frUt\u70C+,rxL)CZLI41
     ZTF00O9 tC2018 06 099\\$j3:_YlaLZMD5!dl6.Rw*I/']5@@qxd*mId_0jt7h/lnN8_\DI41
     ZTF00O9 tC2018 06 096bN_KUw`Oq1N[oA^3ZH#T_k+:lwSNBijpNoK/UB@)W5$;#_cZmL1I41
     ZTF00O9 tC2018 06 09a@W_s_'b)QjxWpa3l'JqueNZ).'+4mGTJ,'03imd4FB*-/P5%`@4I41
     ZTF00O9 tC2018 06 094#B.1//eY;mC(6kGJ7C.DR_3W9MXY;l\8.EIqT4+J'(RrsSB0v+/I41
     ZTF00O9 tC2018 06 09NjB`)J=edS#MxLD-a)1B2cn+q7pmvYBf!(IKfktnkLAj3\sDX+bMI41
     ZTF00O9 tC2018 06 09kY;L:tHZO*)!^JF#x:nJ5^^qX(*=j1.IOIPCCx#s]`NAdtDbh93$I41
     ZTF00O9 tC2018 06 09QqOcSY'DDiGs9Qp6Psc34kTx?Sa.lNfwyoaROBPM1xG$O=oYkXF%I41
     ZTF00O9 tC2018 06 09$UWC.r+TFKQyAlRJ4(wZx$dpswa,D@0yQ-aJ9;JFJ_mV/'8-[M_`I41
     ZTF00O9 tC2018 06 097U34?26)eh78*AHBf.5vqp5XRblSs%AjyTZ(sH?:IuWLqwZ,t+WcI41
     ZTF00O9 tC2018 06 09dc%\UX/4yy3-Zp[\5redacted;[w90.e(+yhY*EvHb!^qYn,3ms@I41
     ZTF00O9 tC2018 06 09'iUdY6;r!I7).6KBtKw3@[+SOkfwda$.Bg-79.`PkI@pk:A/7U)sI41
     ZTF00O9 tC2018 06 09:]+IyIdX1[TRhlkP,uuU;kF030GB9t\vwAvD.0ycbgU.qa)lqy^qI41
     ZTF00O9 tC2018 06 09/K'0mu+)K\$K2HDAXC^ue9)6Tf)%eAwNl$_9SDB%ZF*lHNg[LKV7I41
     ZTF00O9 tC2018 06 09_'s%0Rk+O?w.XjaVff6fq]5yJJKPn?DADTti:#c71A\MRHmh5d%$I41
     ZTF00O9 tC2018 06 09d*NiZ.,(MPJK^x;x!$jgEL:QN-@cLygj)oYc#?lPopV.nq,ouP6tI41
     ZTF00O9 tC2018 06 11VPL+8FHEj.O_Alca8m0.IrtYLo/j@mpK_s#;=ej#`7@!Ogf^k^:eI41
     ZTF00O9 tC2018 06 11=@5']YG*OriEEF`ce+@KB:Mq[m/LQJloj[vM:w1CoBn(1eg+k/ErI41
     ZTF00O9 tC2018 06 11['ej-nSe_4;f(8xKaRmVSPAr=Mc'r[bSF,;=!n(:]xZe62kRe^brI41
     ZTF00O9 tC2018 06 11h)j,0T3]5O6\5+S6[*7YeJwmV,4t!%Z2YmoHv_^2E7yM-6`L8dI`I41
     ZTF00O9 tC2018 06 11@fF8T@:Y!lHO;yhS13kg2tHX;CJUcj!DseeApXvvJE%?xms/'Pm6I41
     ZTF00O9 tC2018 06 11%n%17OfUsgWb'P_#^\t\OGE0eO$UTtIZ_;cKp]l'U..+Ge_+!YAPI41
     ZTF00O9 tC2018 06 12@;EpsJm$*,sH1C+#J`e2E3Q*rRd:\D4wj^pDc=GIuoZ7B:#._69jI41
     ZTF00O9 tC2018 06 12.k.NRk%vOPA8mw`qsU+k0ChJv066Tx[UcnFiEOs@Bf=(]67C\GfJI41
     ZTF00O9 tC2018 06 12rf\V6j.L,=5T=XymQ?5r]q/M.R/0r3\^4n$.WPnt@HlRH_*gNV$yI41
     ZTF00O9 tC2018 06 12e,a;q6OSO=KwA3.L']l*ODRh(sp^RoJ^VBy(2(5aya9ANGG0^9:3I41
     ZTF00O9 tC2018 06 127l!@?KXq@\UQ$/37kHREcE@8Gg+Z?q.tk'F$y@`.K?q^V=abb$b(I41
     ZTF00O9 tC2018 06 12/o:O43v.F$.JW(0e.O7F_T-2dD(Mm!gv5Uv2=Bj%lG-Wf;`#F1IMI41
     ZTF00O9 tC2018 06 125fKrmsZnbikN,g14esk,hQ/*QA.SHwstoflB!a_j,3QsRbaq[R#JI41
     ZTF00O9 tC2018 06 12^g.ibC0:p^c]Q,8lk\RX3K0v3\1?95WxGh:jy.:]rwhXi4#Lf[_lI41
     ZTF00O9 tC2018 06 12F5Y\!xu604WD)!C7;[cm#A\8x.XZHJZ])^\7Olm=#8F$58sNEOCPI41

Station data:
(I41) Palomar Mountain--ZTF  (N33.357340 W116.859780)  US/California. 1.2-m
   f/2.44 Oschin Schmidt + CCD.

Orbital elements:  ZTF00O9
   Perihelion 2018 Mar 29.375726 +/- 0.0986 TT =  9:01:02 (JD 2458206.875726)
Epoch 2018 Jun 12.0 TT = JDT 2458281.5   Earth MOID: 0.0145   Ve: 0.0603
M  77.74293 +/- 0.22                (J2000 ecliptic)          AutoNEOCP
n   1.04179147 +/- 0.00162          Peri.   56.67901 +/- 0.10
a   0.96371551 +/- 0.000997         Node    79.53419 +/- 0.0013
e   0.4124148 +/- 0.000738          Incl.   32.05091 +/- 0.09
P   0.95/345.55d           H 25.6   G  0.15   U  8.4  
q 0.56626488 +/- 0.000123    Q 1.36116614 +/- 0.00212
From 31 observations 2018 June 9-12; mean residual 1".73
Residuals in arcseconds: 
180609 I41  3.5+  3.2+    180609 I41  .51-  .59-    180612 I41  .32-  .56-    
180609 I41  1.2+  2.1+    180609 I41  .80+  1.4-    180612 I41  .33+  1.5+    
180609 I41  .72-  .66-    180609 I41  .24-  1.6+    180612 I41  1.3+  2.4+    
180609 I41  .79+  1.9+    180609 I41  .98-  2.1-    180612 I41  .95-  1.3-    
180609 I41  2.3-  3.3-    180609 I41  .04-  .70+    180612 I41  1.1-  1.9-    
180609 I41  .52-  .62+    180611 I41  .16+  .82-    180612 I41  1.3+  2.5+    
180609 I41  .17+  1.7+    180611 I41  2.5+  5.5+    180612 I41  1.1-  1.5-    
180609 I41  1.2-  2.5-    180611 I41  1.4-  3.6-    180612 I41  .94-  1.1-    
180609 I41  1.0+  1.8+    180611 I41  1.2+  1.8+    180612 I41  .11+  .39+    
180609 I41  .57-  2.2-    180611 I41  .55-  3.3-    
180609 I41  1.2-  1.7-    180611 I41  .18-  .43+    

Ephemerides (geocentric):
Date (UTC) HH   RA              Dec         delta   r     elong  mag " sig PA
---- -- -- --  -------------   -----------  ------ ------ -----  --- ---- ---
2018 06 18 09  14 06 32.703   -51 28 42.12  .09584 1.0798 129.7 22.4  .26  22
2018 06 18 10  14 06 24.302   -51 30 44.79  .09630 1.0801 129.7 22.4  .26  22
2018 06 18 11  14 06 15.984   -51 32 46.23  .09676 1.0803 129.6 22.4  .26  23
2018 06 18 12  14 06 07.747   -51 34 46.44  .09722 1.0806 129.6 22.4  .26  24
2018 06 18 13  14 05 59.592   -51 36 45.46  .09769 1.0808 129.5 22.4  .26  24
2018 06 18 14  14 05 51.517   -51 38 43.29  .09815 1.0811 129.5 22.5  .26  25
2018 06 18 15  14 05 43.521   -51 40 39.95  .09862 1.0813 129.4 22.5  .26  26
2018 06 18 16  14 05 35.604   -51 42 35.46  .09908 1.0816 129.4 22.5  .26  26
2018 06 18 17  14 05 27.765   -51 44 29.84  .09954 1.0819 129.3 22.5  .26  27
2018 06 18 18  14 05 20.002   -51 46 23.10  .10001 1.0821 129.3 22.5  .26  27
2018 06 18 19  14 05 12.315   -51 48 15.26  .10047 1.0824 129.2 22.5  .26  28
2018 06 18 20  14 05 04.703   -51 50 06.33  .10093 1.0826 129.2 22.5  .27  29
2018 06 18 21  14 04 57.165   -51 51 56.33  .10140 1.0829 129.1 22.5  .27  29
2018 06 18 22  14 04 49.701   -51 53 45.28  .10186 1.0831 129.0 22.5  .27  30
2018 06 18 23  14 04 42.309   -51 55 33.18  .10233 1.0834 129.0 22.6  .27  31
2018 06 19 00  14 04 34.990   -51 57 20.06  .10279 1.0836 128.9 22.6  .27  31
2018 06 19 01  14 04 27.741   -51 59 05.93  .10325 1.0839 128.9 22.6  .27  32
2018 06 19 02  14 04 20.563   -52 00 50.79  .10372 1.0842 128.9 22.6  .27  33
2018 06 19 03  14 04 13.454   -52 02 34.68  .10418 1.0844 128.8 22.6  .27  33
2018 06 19 04  14 04 06.415   -52 04 17.59  .10465 1.0847 128.8 22.6  .27  34
2018 06 19 05  14 03 59.443   -52 05 59.54  .10511 1.0849 128.7 22.6  .27  35
2018 06 19 06  14 03 52.539   -52 07 40.54  .10558 1.0852 128.7 22.6  .27  35
2018 06 19 07  14 03 45.702   -52 09 20.62  .10604 1.0854 128.6 22.6  .27  36
2018 06 19 08  14 03 38.931   -52 10 59.77  .10650 1.0857 128.6 22.7  .27  37
2018 06 19 09  14 03 32.225   -52 12 38.02  .10697 1.0859 128.5 22.7  .27  37
2018 06 19 10  14 03 25.584   -52 14 15.37  .10743 1.0862 128.5 22.7  .27  38
2018 06 19 11  14 03 19.007   -52 15 51.83  .10790 1.0864 128.4 22.7  .27  39
2018 06 19 12  14 03 12.494   -52 17 27.43  .10836 1.0867 128.4 22.7  .28  39
2018 06 19 13  14 03 06.043   -52 19 02.16  .10883 1.0870 128.3 22.7  .28  40
2018 06 19 14  14 02 59.654   -52 20 36.04  .10929 1.0872 128.3 22.7  .28  40
2018 06 19 15  14 02 53.327   -52 22 09.09  .10976 1.0875 128.2 22.7  .28  41
2018 06 19 16  14 02 47.061   -52 23 41.31  .11022 1.0877 128.2 22.7  .28  42
2018 06 19 17  14 02 40.855   -52 25 12.71  .11069 1.0880 128.1 22.7  .28  42
2018 06 19 18  14 02 34.708   -52 26 43.30  .11115 1.0882 128.1 22.8  .28  43
2018 06 19 19  14 02 28.621   -52 28 13.10  .11162 1.0885 128.0 22.8  .28  44
2018 06 19 20  14 02 22.593   -52 29 42.11  .11208 1.0887 128.0 22.8  .28  44
2018 06 19 21  14 02 16.622   -52 31 10.34  .11255 1.0890 128.0 22.8  .29  45
2018 06 19 22  14 02 10.709   -52 32 37.81  .11301 1.0892 127.9 22.8  .29  45
2018 06 19 23  14 02 04.852   -52 34 04.53  .11348 1.0895 127.9 22.8  .29  46
2018 06 20 00  14 01 59.052   -52 35 30.49  .11394 1.0897 127.8 22.8  .29  47
2018 06 20 01  14 01 53.307   -52 36 55.72  .11441 1.0900 127.8 22.8  .29  47
2018 06 20 02  14 01 47.618   -52 38 20.22  .11487 1.0902 127.7 22.8  .29  48
2018 06 20 03  14 01 41.983   -52 39 44.00  .11534 1.0905 127.7 22.8  .30  48
2018 06 20 04  14 01 36.403   -52 41 07.07  .11580 1.0907 127.6 22.9  .30  49
2018 06 20 05  14 01 30.876   -52 42 29.44  .11627 1.0910 127.6 22.9  .30  50
2018 06 20 06  14 01 25.402   -52 43 51.11  .11673 1.0912 127.6 22.9  .30  50
2018 06 20 07  14 01 19.981   -52 45 12.10  .11720 1.0915 127.5 22.9  .30  51
2018 06 20 08  14 01 14.612   -52 46 32.42  .11766 1.0918 127.5 22.9  .30  51